Location: Black Creek
(40.9000°S, 175.5500°E)
Time: 23:28:20
(UTC+00:00)

Meteor 1-24 Rocket - Pass Details

Date: 09 November 2024
Orbit: 789 x 926 km, 81.3° (Epoch: 03 December)

Event Time Altitude Azimuth Distance (km) Brightness Sun altitude
Rises 14:29:57 0° 180° (S) 3,608 7.8 -22.6°
Reaches altitude 10° 14:32:52 10° 168° (SSE) 2,649 7.1 -22.2°
Maximum altitude 14:38:01 28° 110° (ESE) 1,651 5.8 -21.6°
Drops below altitude 10° 14:43:00 10° 52° (NE) 2,568 6.2 -21.0°
Sets 14:45:46 0° 40° (NE) 3,477 6.8 -20.6°
